| time (UTC) | temp F | wind direction | speed MPH | gust MPH | rain 1hr in | rain 24hr in | rain mn in | humidity % | barometer mb |
| 20260509120726 | 41 | 110 | 3.0 | 6.0 | 0.00 | 0.00 | 0.00 | 82 | 1015.4 |
| 20260509120126 | 41 | 22 | 3.0 | 3.0 | 0.00 | 0.00 | 0.00 | 82 | 1015.4 |
| 20260509115625 | 41 | 66 | 3.0 | 3.0 | 0.00 | 0.00 | 0.00 | 83 | 1015.4 |
| 20260509115124 | 41 | 357 | 2.0 | 2.0 | 0.00 | 0.00 | 0.00 | 82 | 1015.4 |
| 20260509114624 | 41 | 318 | 2.0 | 2.0 | 0.00 | 0.00 | 0.00 | 83 | 1015.4 |
| 20260509114125 | 41 | 17 | 2.0 | 2.0 | 0.00 | 0.00 | 0.00 | 83 | 1015.2 |
| 20260509113627 | 41 | 55 | 3.0 | 5.0 | 0.00 | 0.00 | 0.00 | 83 | 1015.1 |
| 20260509113228 | 41 | 28 | 3.0 | 3.0 | 0.00 | 0.00 | 0.00 | 82 | 1015.4 |
| 20260509112622 | 40 | 33 | 2.0 | 3.0 | 0.00 | 0.00 | 0.00 | 83 | 1015.2 |
| 20260509112222 | 40 | 360 | 2.0 | 2.0 | 0.00 | 0.00 | 0.00 | 85 | 1015.4 |
| 20260509111623 | 40 | 339 | 0.0 | 1.0 | 0.00 | 0.00 | 0.00 | 85 | 1015.4 |
| 20260509111122 | 40 | 0.0 | 0.0 | 0.00 | 0.00 | 0.00 | 84 | 1015.4 | |
| 20260509110621 | 40 | 354 | 1.0 | 1.0 | 0.00 | 0.00 | 0.00 | 85 | 1015.4 |
| 20260509110120 | 39 | 354 | 1.0 | 2.0 | 0.00 | 0.00 | 0.00 | 85 | 1015.4 |
| 20260509105621 | 39 | 354 | 1.0 | 2.0 | 0.00 | 0.00 | 0.00 | 85 | 1015.4 |
| 20260509104620 | 0 | 0.0 | 0.0 | 0.00 | 0.00 | 0.00 | 1015.1 | ||
| 20260509104122 | 39 | 17 | 2.0 | 2.0 | 0.00 | 0.00 | 0.00 | 86 | 1015.4 |
| 20260509102618 | 39 | 65 | 3.0 | 3.0 | 0.00 | 0.00 | 0.00 | 86 | 1015.1 |
| 20260509101617 | 39 | 19 | 2.0 | 2.0 | 0.00 | 0.00 | 0.00 | 86 | 1015.1 |
| 20260509101119 | 39 | 340 | 1.0 | 2.0 | 0.00 | 0.00 | 0.00 | 85 | 1015.1 |
| 20260509100617 | 39 | 351 | 1.0 | 1.0 | 0.00 | 0.00 | 0.00 | 84 | 1015.1 |
| 20260509100117 | 39 | 0.0 | 0.0 | 0.00 | 0.00 | 0.00 | 84 | 1015.1 | |
| 20260509095616 | 40 | 353 | 1.0 | 2.0 | 0.00 | 0.00 | 0.00 | 83 | 1015.1 |
| 20260509095117 | 40 | 346 | 1.0 | 2.0 | 0.00 | 0.00 | 0.00 | 83 | 1015.2 |
| 20260509094617 | 39 | 273 | 2.0 | 3.0 | 0.00 | 0.00 | 0.00 | 83 | 1015.1 |
| 20260509094117 | 39 | 309 | 1.0 | 3.0 | 0.00 | 0.00 | 0.00 | 84 | 1015.1 |
| 20260509093647 | 39 | 74 | 3.0 | 3.0 | 0.00 | 0.00 | 0.00 | 85 | 1015.1 |
| 20260509093146 | 38 | 0 | 2.0 | 2.0 | 0.00 | 0.00 | 0.00 | 87 | 1015.1 |
| 20260509092645 | 37 | 350 | 1.0 | 1.0 | 0.00 | 0.00 | 0.00 | 88 | 1015.1 |
| 20260509092144 | 36 | 0.0 | 0.0 | 0.00 | 0.00 | 0.00 | 91 | 1015.1 | |
| 20260509091643 | 35 | 334 | 1.0 | 1.0 | 0.00 | 0.00 | 0.00 | 93 | 1015.1 |
| 20260509091145 | 35 | 0.0 | 0.0 | 0.00 | 0.00 | 0.00 | 93 | 1015.1 | |
| 20260509090647 | 35 | 0.0 | 0.0 | 0.00 | 0.00 | 0.00 | 93 | 1015.1 | |
| 20260509090143 | 35 | 326 | 1.0 | 1.0 | 0.00 | 0.00 | 0.00 | 92 | 1014.9 |
| 20260509085645 | 35 | 326 | 1.0 | 1.0 | 0.00 | 0.00 | 0.00 | 92 | 1015.1 |
| 20260509085143 | 36 | 356 | 1.0 | 2.0 | 0.00 | 0.00 | 0.00 | 91 | 1014.7 |
| 20260509084646 | 35 | 0.0 | 0.0 | 0.00 | 0.00 | 0.00 | 93 | 1014.7 | |
| 20260509084242 | 34 | 340 | 1.0 | 1.0 | 0.00 | 0.00 | 0.00 | 93 | 1014.9 |
| 20260509083644 | 34 | 336 | 0.0 | 1.0 | 0.00 | 0.00 | 0.00 | 94 | 1014.7 |
| 20260509083140 | 34 | 331 | 0.0 | 1.0 | 0.00 | 0.00 | 0.00 | 93 | 1014.4 |
| 20260509082643 | 0 | 0.0 | 0.0 | 0.00 | 0.00 | 0.00 | 1014.4 | ||
| 20260509082140 | 0 | 0.0 | 0.0 | 0.00 | 0.00 | 0.00 | 1014.4 | ||
| 20260509081639 | 34 | 326 | 1.0 | 1.0 | 0.00 | 0.00 | 0.00 | 92 | 1014.4 |
| 20260509081140 | 34 | 326 | 1.0 | 1.0 | 0.00 | 0.00 | 0.00 | 92 | 1014.4 |
| 20260509080639 | 34 | 342 | 2.0 | 2.0 | 0.00 | 0.00 | 0.00 | 91 | 1014.4 |
| 20260509080141 | 34 | 342 | 2.0 | 2.0 | 0.00 | 0.00 | 0.00 | 91 | 1014.4 |
| 20260509075638 | 34 | 323 | 2.0 | 2.0 | 0.00 | 0.00 | 0.00 | 91 | 1014.2 |
| 20260509074638 | 0 | 0.0 | 0.0 | 0.00 | 0.00 | 0.00 | 1014.4 | ||
| 20260509074238 | 34 | 326 | 2.0 | 2.0 | 0.00 | 0.00 | 0.00 | 92 | 1014.4 |
| 20260509073638 | 34 | 326 | 2.0 | 2.0 | 0.00 | 0.00 | 0.00 | 92 | 1014.4 |
| 20260509073138 | 34 | 330 | 2.0 | 2.0 | 0.00 | 0.00 | 0.00 | 91 | 1014.4 |
| 20260509072637 | 34 | 330 | 2.0 | 2.0 | 0.00 | 0.00 | 0.00 | 91 | 1014.4 |
| 20260509071637 | 34 | 327 | 1.0 | 1.0 | 0.00 | 0.00 | 0.00 | 92 | 1014.4 |
| 20260509070635 | 34 | 325 | 2.0 | 2.0 | 0.00 | 0.00 | 0.00 | 92 | 1014.2 |
| 20260509070135 | 34 | 325 | 2.0 | 2.0 | 0.00 | 0.00 | 0.00 | 91 | 1014.4 |
| 20260509065635 | 35 | 333 | 1.0 | 1.0 | 0.00 | 0.00 | 0.00 | 90 | 1014.4 |
| 20260509065137 | 35 | 0.0 | 0.0 | 0.00 | 0.00 | 0.00 | 90 | 1014.4 | |
| 20260509064635 | 35 | 334 | 2.0 | 2.0 | 0.00 | 0.00 | 0.00 | 91 | 1014.4 |
| 20260509064135 | 35 | 326 | 3.0 | 3.0 | 0.00 | 0.00 | 0.00 | 90 | 1014.4 |
| 20260509063634 | 35 | 326 | 3.0 | 3.0 | 0.00 | 0.00 | 0.00 | 90 | 1014.5 |
| 20260509063135 | 35 | 327 | 3.0 | 3.0 | 0.00 | 0.00 | 0.00 | 90 | 1014.5 |
| 20260509062633 | 35 | 330 | 3.0 | 3.0 | 0.00 | 0.00 | 0.00 | 90 | 1014.7 |
| 20260509061632 | 35 | 326 | 2.0 | 2.0 | 0.00 | 0.00 | 0.00 | 90 | 1014.7 |
| 20260509061133 | 35 | 333 | 2.0 | 2.0 | 0.00 | 0.00 | 0.00 | 90 | 1014.7 |
| 20260509060632 | 35 | 325 | 2.0 | 2.0 | 0.00 | 0.00 | 0.00 | 90 | 1014.7 |
| 20260509060131 | 35 | 326 | 2.0 | 2.0 | 0.00 | 0.00 | 0.00 | 90 | 1014.9 |
| 20260509055630 | 35 | 320 | 2.0 | 2.0 | 0.00 | 0.00 | 0.00 | 90 | 1014.9 |
| 20260509055130 | 36 | 325 | 2.0 | 2.0 | 0.00 | 0.00 | 0.00 | 89 | 1015.1 |
| 20260509054631 | 36 | 0.0 | 0.0 | 0.00 | 0.00 | 0.00 | 88 | 1015.1 | |
| 20260509054131 | 36 | 0.0 | 0.0 | 0.00 | 0.00 | 0.00 | 88 | 1015.1 | |
| 20260509053128 | 36 | 324 | 2.0 | 2.0 | 0.00 | 0.00 | 0.00 | 88 | 1015.1 |
| 20260509052628 | 36 | 333 | 2.0 | 2.0 | 0.00 | 0.00 | 0.00 | 88 | 1015.1 |
| 20260509052130 | 36 | 331 | 2.0 | 2.0 | 0.00 | 0.00 | 0.00 | 87 | 1014.9 |
| 20260509051628 | 36 | 335 | 2.0 | 2.0 | 0.00 | 0.00 | 0.00 | 88 | 1015.1 |
| 20260509051127 | 36 | 325 | 2.0 | 2.0 | 0.00 | 0.00 | 0.00 | 89 | 1014.7 |
| 20260509050628 | 36 | 325 | 2.0 | 2.0 | 0.00 | 0.00 | 0.00 | 88 | 1014.7 |
| 20260509050128 | 36 | 325 | 2.0 | 2.0 | 0.00 | 0.00 | 0.00 | 88 | 1014.7 |
| 20260509045627 | 37 | 326 | 2.0 | 2.0 | 0.00 | 0.00 | 0.00 | 88 | 1014.7 |
| 20260509045126 | 37 | 326 | 2.0 | 2.0 | 0.00 | 0.00 | 0.00 | 88 | 1014.7 |
| 20260509044625 | 37 | 325 | 2.0 | 2.0 | 0.00 | 0.00 | 0.00 | 87 | 1014.7 |
| 20260509044124 | 37 | 332 | 2.0 | 3.0 | 0.00 | 0.00 | 0.00 | 87 | 1014.7 |
| 20260509043627 | 37 | 331 | 1.0 | 1.0 | 0.00 | 0.00 | 0.00 | 87 | 1014.7 |
| 20260509043125 | 37 | 329 | 2.0 | 2.0 | 0.00 | 0.00 | 0.00 | 87 | 1014.7 |
| 20260509042125 | 38 | 330 | 1.0 | 2.0 | 0.00 | 0.00 | 0.00 | 86 | 1014.7 |
| 20260509041625 | 38 | 328 | 2.0 | 2.0 | 0.00 | 0.00 | 0.00 | 85 | 1014.4 |
| 20260509041225 | 38 | 335 | 2.0 | 2.0 | 0.00 | 0.00 | 0.00 | 84 | 1014.7 |
| 20260509040623 | 38 | 327 | 1.0 | 2.0 | 0.00 | 0.00 | 0.00 | 85 | 1014.7 |
| 20260509040124 | 38 | 331 | 1.0 | 1.0 | 0.00 | 0.00 | 0.00 | 85 | 1014.5 |
| 20260509035623 | 38 | 331 | 1.0 | 1.0 | 0.00 | 0.00 | 0.00 | 84 | 1014.7 |
| 20260509035124 | 39 | 330 | 1.0 | 1.0 | 0.00 | 0.00 | 0.00 | 83 | 1014.7 |
| 20260509034121 | 39 | 326 | 1.0 | 1.0 | 0.00 | 0.00 | 0.00 | 83 | 1014.7 |
| 20260509033623 | 39 | 326 | 1.0 | 1.0 | 0.00 | 0.00 | 0.00 | 83 | 1014.4 |
| 20260509033123 | 39 | 327 | 1.0 | 1.0 | 0.00 | 0.00 | 0.00 | 83 | 1014.4 |
| 20260509032621 | 39 | 328 | 1.0 | 1.0 | 0.00 | 0.00 | 0.00 | 83 | 1014.5 |
| 20260509031621 | 0 | 0.0 | 0.0 | 0.00 | 0.00 | 0.00 | 1014.4 | ||
| 20260509031222 | 0 | 0.0 | 0.0 | 0.00 | 0.00 | 0.00 | 1014.4 | ||
| 20260509030619 | 0 | 0.0 | 0.0 | 0.00 | 0.00 | 0.00 | 1014.4 | ||
| 20260509030118 | 0 | 0.0 | 0.0 | 0.00 | 0.00 | 0.00 | 1014.4 | ||
| 20260509024618 | 0 | 0.0 | 0.0 | 0.00 | 0.00 | 0.00 | 1014.4 | ||
| 20260509024119 | 0 | 0.0 | 0.0 | 0.00 | 0.00 | 0.00 | 1014.2 | ||
| 20260509023618 | 0 | 0.0 | 0.0 | 0.00 | 0.00 | 0.00 | 1014.2 | ||
| 20260509023117 | 0 | 0.0 | 0.0 | 0.00 | 0.00 | 0.00 | 1014.0 | ||
| 20260509022618 | 0 | 0.0 | 0.0 | 0.00 | 0.00 | 0.00 | 1014.0 | ||
| 20260509022116 | 0 | 0.0 | 0.0 | 0.00 | 0.00 | 0.00 | 1014.0 | ||
| 20260509021645 | 41 | 337 | 1.0 | 1.0 | 0.00 | 0.00 | 0.00 | 79 | 1014.0 |
| 20260509021146 | 41 | 337 | 1.0 | 1.0 | 0.00 | 0.00 | 0.00 | 79 | 1014.0 |
| 20260509020645 | 41 | 331 | 1.0 | 1.0 | 0.00 | 0.00 | 0.00 | 78 | 1014.0 |
| 20260509020145 | 41 | 331 | 1.0 | 1.0 | 0.00 | 0.00 | 0.00 | 78 | 1013.7 |
| 20260509015644 | 41 | 308 | 2.0 | 5.0 | 0.00 | 0.00 | 0.00 | 78 | 1014.0 |
| 20260509015145 | 41 | 331 | 1.0 | 1.0 | 0.00 | 0.00 | 0.00 | 78 | 1014.0 |
| 20260509014644 | 42 | 0.0 | 0.0 | 0.00 | 0.00 | 0.00 | 77 | 1014.0 | |
| 20260509014143 | 0 | 0.0 | 0.0 | 0.00 | 0.00 | 0.00 | 1013.7 | ||
| 20260509013644 | 44 | 318 | 2.0 | 2.0 | 0.00 | 0.00 | 0.00 | 70 | 1014.0 |
| 20260509013145 | 44 | 318 | 2.0 | 2.0 | 0.00 | 0.00 | 0.00 | 70 | 1013.7 |
| 20260509012142 | 44 | 327 | 1.0 | 1.0 | 0.00 | 0.00 | 0.00 | 72 | 1013.7 |
| 20260509011643 | 44 | 331 | 1.0 | 1.0 | 0.00 | 0.00 | 0.00 | 72 | 1013.3 |
| 20260509011243 | 0 | 0.0 | 0.0 | 0.00 | 0.00 | 0.00 | 1013.3 | ||
| 20260509010642 | 44 | 357 | 3.0 | 3.0 | 0.00 | 0.00 | 0.00 | 71 | 1013.3 |
| 20260509010241 | 44 | 357 | 3.0 | 3.0 | 0.00 | 0.00 | 0.00 | 71 | 1013.3 |
| 20260509005640 | 45 | 330 | 2.0 | 3.0 | 0.00 | 0.00 | 0.00 | 67 | 1013.3 |
| 20260509005143 | 45 | 320 | 1.0 | 3.0 | 0.00 | 0.00 | 0.00 | 68 | 1013.3 |
| 20260509004640 | 45 | 302 | 3.0 | 3.0 | 0.00 | 0.00 | 0.00 | 68 | 1013.0 |
| 20260509004140 | 45 | 302 | 3.0 | 3.0 | 0.00 | 0.00 | 0.00 | 68 | 1013.0 |
| 20260509003639 | 45 | 333 | 1.0 | 2.0 | 0.00 | 0.00 | 0.00 | 68 | 1012.6 |
| 20260509003138 | 45 | 293 | 3.0 | 7.0 | 0.00 | 0.00 | 0.00 | 68 | 1012.6 |
| 20260509002639 | 45 | 340 | 1.0 | 2.0 | 0.00 | 0.00 | 0.00 | 68 | 1013.0 |
| 20260509002139 | 45 | 328 | 2.0 | 2.0 | 0.00 | 0.00 | 0.00 | 68 | 1012.6 |
| 20260509001638 | 45 | 314 | 2.0 | 2.0 | 0.00 | 0.00 | 0.00 | 69 | 1012.6 |
| 20260509001137 | 45 | 338 | 2.0 | 3.0 | 0.00 | 0.00 | 0.00 | 69 | 1012.6 |
| 20260509000738 | 45 | 330 | 0.0 | 1.0 | 0.00 | 0.00 | 0.00 | 70 | 1012.6 |
| 20260509000137 | 46 | 330 | 0.0 | 1.0 | 0.00 | 0.00 | 0.00 | 68 | 1012.6 |
| 20260508235636 | 46 | 316 | 1.0 | 2.0 | 0.00 | 0.00 | 0.00 | 69 | 1012.6 |
| 20260508235135 | 46 | 349 | 1.0 | 2.0 | 0.00 | 0.00 | 0.00 | 67 | 1012.6 |
| 20260508234636 | 46 | 0.0 | 0.0 | 0.00 | 0.00 | 0.00 | 67 | 1012.6 | |
| 20260508234136 | 46 | 316 | 2.0 | 3.0 | 0.00 | 0.00 | 0.00 | 67 | 1012.3 |
| 20260508233636 | 46 | 340 | 1.0 | 2.0 | 0.00 | 0.00 | 0.00 | 66 | 1012.4 |
| 20260508233136 | 47 | 0.0 | 0.0 | 0.00 | 0.00 | 0.00 | 67 | 1012.6 | |
| 20260508232633 | 47 | 349 | 2.0 | 3.0 | 0.00 | 0.00 | 0.00 | 66 | 1012.3 |
| 20260508232135 | 47 | 302 | 3.0 | 5.0 | 0.00 | 0.00 | 0.00 | 65 | 1012.3 |
| 20260508231634 | 47 | 340 | 0.0 | 1.0 | 0.00 | 0.00 | 0.00 | 66 | 1012.3 |
| 20260508230635 | 47 | 349 | 1.0 | 2.0 | 0.00 | 0.00 | 0.00 | 66 | 1012.1 |
| 20260508225632 | 47 | 302 | 4.0 | 7.0 | 0.00 | 0.00 | 0.00 | 65 | 1012.3 |
| 20260508225136 | 47 | 322 | 4.0 | 5.0 | 0.00 | 0.00 | 0.00 | 65 | 1011.9 |
| 20260508224633 | 47 | 8 | 5.0 | 6.0 | 0.00 | 0.00 | 0.00 | 64 | 1011.9 |
| 20260508224134 | 47 | 326 | 3.0 | 5.0 | 0.00 | 0.00 | 0.00 | 64 | 1011.9 |
| 20260508223631 | 47 | 352 | 2.0 | 3.0 | 0.00 | 0.00 | 0.00 | 63 | 1011.9 |
| 20260508223131 | 47 | 331 | 3.0 | 5.0 | 0.00 | 0.00 | 0.00 | 64 | 1011.9 |
| 20260508222632 | 48 | 299 | 4.0 | 8.0 | 0.00 | 0.00 | 0.00 | 65 | 1012.1 |
| 20260508222131 | 47 | 330 | 5.0 | 9.0 | 0.00 | 0.00 | 0.00 | 67 | 1011.9 |
| 20260508221631 | 47 | 356 | 5.0 | 9.0 | 0.00 | 0.00 | 0.00 | 68 | 1012.3 |
| 20260508221129 | 47 | 356 | 3.0 | 8.0 | 0.00 | 0.00 | 0.00 | 67 | 1012.1 |
| 20260508220130 | 48 | 325 | 2.0 | 6.0 | 0.00 | 0.00 | 0.00 | 68 | 1011.9 |
| 20260508215629 | 47 | 326 | 2.0 | 3.0 | 0.00 | 0.00 | 0.00 | 67 | 1012.1 |
| 20260508215129 | 47 | 330 | 7.0 | 9.0 | 0.00 | 0.00 | 0.00 | 68 | 1011.9 |
| 20260508214627 | 48 | 313 | 4.0 | 6.0 | 0.00 | 0.00 | 0.00 | 67 | 1012.3 |
| 20260508213127 | 46 | 349 | 1.0 | 2.0 | 0.00 | 0.00 | 0.00 | 77 | 1011.9 |
| 20260508212626 | 45 | 312 | 1.0 | 2.0 | 0.00 | 0.00 | 0.00 | 79 | 1012.3 |
| 20260508212125 | 45 | 313 | 1.0 | 3.0 | 0.00 | 0.00 | 0.00 | 76 | 1012.3 |
| 20260508211626 | 46 | 297 | 4.0 | 5.0 | 0.00 | 0.00 | 0.00 | 72 | 1012.3 |
| 20260508210124 | 48 | 306 | 5.0 | 9.0 | 0.00 | 0.00 | 0.00 | 63 | 1011.9 |
| 20260508205627 | 48 | 356 | 9.0 | 13.0 | 0.00 | 0.00 | 0.00 | 60 | 1011.6 |
| 20260508205124 | 49 | 296 | 3.0 | 5.0 | 0.00 | 0.00 | 0.00 | 56 | 1011.6 |
| 20260508204625 | 50 | 342 | 7.0 | 10.0 | 0.00 | 0.00 | 0.00 | 52 | 1011.6 |
| 20260508203623 | 52 | 332 | 3.0 | 5.0 | 0.00 | 0.00 | 0.00 | 49 | 1011.2 |
| 20260508202622 | 52 | 341 | 2.0 | 3.0 | 0.00 | 0.00 | 0.00 | 49 | 1011.2 |
| 20260508193622 | 55 | 325 | 4.0 | 6.0 | 0.00 | 0.00 | 0.00 | 45 | 1010.9 |
| 20260508193119 | 52 | 338 | 1.0 | 2.0 | 0.00 | 0.00 | 0.00 | 48 | 1010.5 |
| 20260508192620 | 52 | 306 | 3.0 | 6.0 | 0.00 | 0.00 | 0.00 | 48 | 1010.7 |
| 20260508192117 | 52 | 337 | 3.0 | 5.0 | 0.00 | 0.00 | 0.00 | 49 | 1010.9 |
| 20260508191617 | 52 | 316 | 3.0 | 6.0 | 0.00 | 0.00 | 0.00 | 47 | 1010.9 |
| 20260508191119 | 52 | 0 | 3.0 | 6.0 | 0.00 | 0.00 | 0.00 | 47 | 1010.9 |
| 20260508190617 | 53 | 338 | 2.0 | 2.0 | 0.00 | 0.00 | 0.00 | 45 | 1010.9 |
| 20260508185718 | 52 | 334 | 4.0 | 7.0 | 0.00 | 0.00 | 0.00 | 46 | 1010.9 |
| 20260508185117 | 53 | 329 | 2.0 | 2.0 | 0.00 | 0.00 | 0.00 | 46 | 1010.9 |
| 20260508184646 | 53 | 317 | 6.0 | 8.0 | 0.00 | 0.00 | 0.00 | 43 | 1010.9 |
| 20260508184245 | 52 | 284 | 5.0 | 8.0 | 0.00 | 0.00 | 0.00 | 44 | 1010.9 |
| 20260508183646 | 53 | 9 | 11.0 | 15.0 | 0.00 | 0.00 | 0.00 | 43 | 1010.7 |
| 20260508183145 | 53 | 342 | 5.0 | 8.0 | 0.00 | 0.00 | 0.00 | 43 | 1010.9 |
| 20260508182644 | 54 | 7 | 6.0 | 10.0 | 0.00 | 0.00 | 0.00 | 43 | 1010.9 |
| 20260508181643 | 56 | 55 | 2.0 | 6.0 | 0.00 | 0.00 | 0.00 | 43 | 1010.9 |
| 20260508180644 | 53 | 321 | 2.0 | 5.0 | 0.00 | 0.00 | 0.00 | 43 | 1010.9 |
| 20260508180243 | 53 | 338 | 1.0 | 2.0 | 0.00 | 0.00 | 0.00 | 44 | 1010.9 |
| 20260508174642 | 54 | 315 | 4.0 | 5.0 | 0.00 | 0.00 | 0.00 | 42 | 1010.9 |
| 20260508174141 | 54 | 321 | 5.0 | 8.0 | 0.00 | 0.00 | 0.00 | 42 | 1010.9 |
| 20260508173643 | 53 | 296 | 5.0 | 8.0 | 0.00 | 0.00 | 0.00 | 42 | 1010.9 |
| 20260508173140 | 54 | 65 | 3.0 | 5.0 | 0.00 | 0.00 | 0.00 | 42 | 1011.0 |
| 20260508172641 | 53 | 338 | 5.0 | 8.0 | 0.00 | 0.00 | 0.00 | 44 | 1011.2 |
| 20260508172140 | 52 | 349 | 5.0 | 9.0 | 0.00 | 0.00 | 0.00 | 44 | 1010.9 |
| 20260508171641 | 52 | 356 | 4.0 | 6.0 | 0.00 | 0.00 | 0.00 | 42 | 1011.4 |
| 20260508171141 | 52 | 335 | 7.0 | 8.0 | 0.00 | 0.00 | 0.00 | 43 | 1011.2 |
| 20260508170639 | 51 | 314 | 3.0 | 5.0 | 0.00 | 0.00 | 0.00 | 45 | 1011.2 |
| 20260508163637 | 50 | 313 | 2.0 | 3.0 | 0.00 | 0.00 | 0.00 | 45 | 1011.6 |
| 20260508163136 | 50 | 295 | 3.0 | 6.0 | 0.00 | 0.00 | 0.00 | 45 | 1011.6 |
| 20260508162737 | 50 | 323 | 3.0 | 6.0 | 0.00 | 0.00 | 0.00 | 47 | 1011.4 |
| 20260508162136 | 50 | 332 | 4.0 | 7.0 | 0.00 | 0.00 | 0.00 | 45 | 1011.2 |
| 20260508161135 | 50 | 1 | 3.0 | 5.0 | 0.00 | 0.00 | 0.00 | 45 | 1011.2 |
| 20260508160135 | 51 | 1 | 1.0 | 1.0 | 0.00 | 0.00 | 0.00 | 43 | 1011.2 |
| 20260508155634 | 50 | 337 | 3.0 | 5.0 | 0.00 | 0.00 | 0.00 | 44 | 1011.2 |
| 20260508155133 | 51 | 3 | 7.0 | 10.0 | 0.00 | 0.00 | 0.00 | 43 | 1011.2 |
| 20260508154632 | 51 | 7 | 8.0 | 17.0 | 0.00 | 0.00 | 0.00 | 42 | 1011.2 |
| 20260508154134 | 50 | 344 | 1.0 | 2.0 | 0.00 | 0.00 | 0.00 | 43 | 1011.2 |
| 20260508153633 | 52 | 321 | 4.0 | 7.0 | 0.00 | 0.00 | 0.00 | 42 | 1011.2 |
| 20260508153234 | 53 | 133 | 3.0 | 7.0 | 0.00 | 0.00 | 0.00 | 41 | 1011.2 |
| 20260508152632 | 53 | 336 | 1.0 | 2.0 | 0.00 | 0.00 | 0.00 | 43 | 1010.9 |
| 20260508152133 | 52 | 313 | 3.0 | 5.0 | 0.00 | 0.00 | 0.00 | 43 | 1010.9 |
| 20260508151633 | 52 | 10 | 5.0 | 8.0 | 0.00 | 0.00 | 0.00 | 42 | 1010.9 |
| 20260508151131 | 51 | 328 | 4.0 | 7.0 | 0.00 | 0.00 | 0.00 | 42 | 1010.9 |
| 20260508150630 | 50 | 356 | 5.0 | 9.0 | 0.00 | 0.00 | 0.00 | 43 | 1010.9 |
| 20260508140126 | 49 | 269 | 5.0 | 8.0 | 0.00 | 0.00 | 0.00 | 50 | 1011.2 |
| 20260508135627 | 48 | 1 | 7.0 | 10.0 | 0.00 | 0.00 | 0.00 | 52 | 1011.2 |
| 20260508135126 | 48 | 340 | 6.0 | 9.0 | 0.00 | 0.00 | 0.00 | 51 | 1011.4 |
| 20260508134625 | 50 | 355 | 9.0 | 14.0 | 0.00 | 0.00 | 0.00 | 50 | 1011.6 |
| 20260508133626 | 48 | 335 | 0.0 | 1.0 | 0.00 | 0.00 | 0.00 | 53 | 1011.6 |
| 20260508133126 | 47 | 327 | 2.0 | 3.0 | 0.00 | 0.00 | 0.00 | 54 | 1011.6 |
| 20260508132624 | 47 | 358 | 3.0 | 8.0 | 0.00 | 0.00 | 0.00 | 54 | 1011.6 |
| 20260508132123 | 46 | 14 | 3.0 | 5.0 | 0.00 | 0.00 | 0.00 | 55 | 1011.6 |
| 20260508131622 | 47 | 358 | 3.0 | 5.0 | 0.00 | 0.00 | 0.00 | 56 | 1011.6 |
| 20260508131124 | 46 | 343 | 2.0 | 3.0 | 0.00 | 0.00 | 0.00 | 58 | 1011.6 |
| 20260508130623 | 45 | 318 | 3.0 | 5.0 | 0.00 | 0.00 | 0.00 | 58 | 1011.7 |
| 20260508130122 | 45 | 316 | 4.0 | 7.0 | 0.00 | 0.00 | 0.00 | 59 | 1011.6 |
| 20260508125621 | 45 | 314 | 2.0 | 3.0 | 0.00 | 0.00 | 0.00 | 59 | 1011.6 |
| 20260508125120 | 45 | 312 | 4.0 | 8.0 | 0.00 | 0.00 | 0.00 | 60 | 1011.6 |
| 20260508124622 | 44 | 326 | 1.0 | 2.0 | 0.00 | 0.00 | 0.00 | 59 | 1011.6 |
| 20260508124121 | 44 | 353 | 2.0 | 5.0 | 0.00 | 0.00 | 0.00 | 59 | 1011.6 |
| 20260508123621 | 44 | 318 | 5.0 | 7.0 | 0.00 | 0.00 | 0.00 | 60 | 1011.6 |
| 20260508123121 | 44 | 340 | 2.0 | 2.0 | 0.00 | 0.00 | 0.00 | 60 | 1011.6 |
| 20260508122620 | 44 | 313 | 3.0 | 7.0 | 0.00 | 0.00 | 0.00 | 61 | 1011.6 |
| 20260508122122 | 44 | 328 | 4.0 | 8.0 | 0.00 | 0.00 | 0.00 | 60 | 1011.6 |
| 20260508121718 | 44 | 323 | 3.0 | 5.0 | 0.00 | 0.00 | 0.00 | 61 | 1011.4 |
| 20260508121122 | 44 | 315 | 3.0 | 5.0 | 0.00 | 0.00 | 0.00 | 60 | 1011.6 |